www.pogodaiklimat.ru

Погода и климат >> Архив погоды >> Россия >> Чувашия >> Порецкое


АРХИВ ПОГОДЫ в Порецком

Время (UTC), дата Ветер
(напр.,м/с)
 
Видим.   Явления Облачность Т
(С)
Тd
(С)
f
(%)
Тe
(С)
Тes
(С)
Комфортность P
(гПа)
Po
(гПа)
Тmin
(С)
Tmax
(С)
R
(мм)
R24
(мм)
S
(см)
03 13.08 З 2-2
{4}
10 км ясно +6.6 +3.8 82 +4 +5 1016.4 999.7 +5.8
06 13.08 СЗ 4-7
{8}
10 км 3/0
[Ac und]
+13.7 +6.2 60 +12 +17 1017.2 1000.9
09 13.08 С 6-9
{10}
10 км 4/0
[Ci fib]
+17.1 +5.0 45 +16 +21 1015.9 999.8
12 13.08 СЗ 5-8
{11}
10 км 4/0
[Ci fib]
+19.6 +6.4 42 +20 +24 1015.4 999.4
15 13.08 С 4-5
{10}
10 км 3/0
[Ci fib]
+19.1 +6.5 44 +20 +20 1015.2 999.2 +19.9
18 13.08 С 2-2
{5}
10 км 4/0
[Ci fib]
+13.7 +4.6 54 +13 +13 1016.3 1000.0
21 13.08 С 3-3
{4}
10 км ясно +8.4 +4.5 76 +6 +6 1016.3 999.7
00 14.08 С 2-3
{4}
10 км 9/0
[Ac und Ci fib]
+6.5 +3.9 83 +4 +4 1015.8 999.1
03 14.08 ЮЗ 2-3
{4}
10 км 9/0
[Ac und Ci fib]
+6.8 +5.2 90 +4 +5 1015.4 998.7 +5.8
06 14.08 В 3-4
{5}
10 км 9/0
[Ac und Ci fib]
+12.0 +7.4 73 +10 +13 1014.5 998.1
09 14.08 В 3-4
{6}
10 км 9/0
[Ci fib]
+16.0 +9.3 64 +16 +24 1013.2 997.1
12 14.08 В 4-5
{7}
10 км 9/0
[Ci fib]
+20.6 +9.8 50 +22 +26 комфорт 1012.2 996.4
15 14.08 В 2-3
{5}
10 км 9/0
[Ci fib]
+21.7 +12.5 56 +24 +25 комфорт 1012.9 997.1 +21.9
18 14.08 штиль 0
{3}
10 км 3/0
[Ci fib]
+16.4 +12.2 76 +16 +16 1014.2 998.1
21 14.08 Ю 2-2
{3}
10 км 3/0
[Ci fib]
+13.3 +11.4 88 +13 +13 1014.3 998.1
00 15.08 ЮЗ 2-3
{3}
10 км ясно +12.7 +11.4 92 +12 +12 1014.7 998.4
03 15.08 В 1-2
{5}
10 км 3/0
[Ci fib]
+12.8 +11.7 93 +13 +14 1015.4 999.1 +12.3
06 15.08 В 3-3
{5}
10 км ясно +19.1 +13.7 71 +21 +27 комфорт 1014.9 998.9
09 15.08 С 4-4
{7}
10 км ясно +26.7 +14.8 48 +29 +38 жарко 1013.8 998.3
12 15.08 В 5-5
{9}
10 км ясно +29.6 +14.0 39 +32 +35 душно 1012.3 996.9
15 15.08 С 4-4
{9}
10 км ясно +29.5 +14.8 41 +32 +32 душно 1011.5 996.1 +30.1
18 15.08 СВ 5-5
{7}
10 км ясно +25.8 +14.9 51 +29 +29 душно 1011.7 996.2
21 15.08 С 3-3
{7}
10 км ясно +23.0 +15.1 61 +27 +27 душно 1012.5 996.8
00 16.08 СЗ 2-2
{5}
10 км ясно +19.3 +15.2 77 +21 +21 комфорт 1013.0 997.2
03 16.08 С 2-2
{4}
10 км 9/9 600 м
[Sc]
+18.2 +15.0 82 +19 +19 1013.2 997.3 +18.1
06 16.08 Ю 3-5
{7}
10 км 9/0
[Ac und Ci fib]
+26.4 +17.7 59 +31 +33 душно 1011.8 996.3
09 16.08 С 3-8
{11}
10 км в посл. час ливневой дождь {гроза} 10/10 600 м
[Sc]
+18.1 +15.9 87 +18 +18 1015.5 999.5
12 16.08 В 3-5
{7}
10 км {гроза} 10/0
[As op]
+20.6 +16.6 78 +24 +25 комфорт 1015.0 999.1
15 16.08 В 1-2
{6}
10 км 10/0
[As op]
+20.8 +16.5 76 +25 +25 комфорт 1014.0 998.1 +27.8 4
18 16.08 В 2-2
{3}
10 км 10/10 600 м
[Sc]
+19.1 +16.4 84 +21 +21 комфорт 1014.2 998.3
21 16.08 В 3-4
{5}
10 км 10/10 600 м
[Sc]
+18.6 +15.9 84 +20 +20 1013.8 997.8
00 17.08 В 4-4
{5}
10 км 10/10 600 м
[Sc]
+17.8 +15.8 88 +18 +18 1013.9 997.9
03 17.08 ЮЗ 3-4
{7}
10 км 10/10 600 м
[Sc]
+17.3 +15.6 90 +17 +17 1014.2 998.2 +17.2
06 17.08 ЮЗ 1-2
{3}
4000 м слаб. дождь 10/10 600 м
[Frnb Ns]
+18.4 +16.8 90 +20 +20 1014.7 998.7
09 17.08 Ю 2-2
{5}
10 км {дождь} 10/0
[As op]
+21.5 +18.3 82 +26 +28 душно 1014.2 998.4
12 17.08 В 3-3
{4}
10 км 10/0
[As op]
+22.7 +17.9 74 +28 +29 душно 1014.4 998.6
15 17.08 В 2-3
{4}
10 км 10/0
[As op]
+21.2 +18.5 85 +26 +26 душно 1015.1 999.3 +23.4 1
18 17.08 ЮВ 2-3
{4}
10 км 10/10 600 м
[Sc]
+19.4 +17.7 90 +22 +22 комфорт 1014.9 999.0
21 17.08 ЮВ 2-3
{4}
10 км 10/10 600 м
[Sc]
+18.6 +17.2 92 +20 +20 1013.3 997.4
00 18.08 В 2-3
{4}
10 км 10/10 600 м
[Sc]
+18.4 +16.9 91 +20 +20 1013.3 997.4
03 18.08 СВ 1-2
{6}
10 км 10/0
[As op]
+18.7 +16.7 88 +21 +21 комфорт 1012.4 996.5 +18.2
06 18.08 В 2-4
{6}
10 км 9/0
[Ac und Ci fib]
+21.3 +16.7 75 +25 +29 комфорт 1012.4 996.6
09 18.08 В 3-6
{6}
10 км 9/0
[Ac und Ci fib]
+27.7 +16.3 50 +31 +35 душно 1012.1 996.7
12 18.08 ЮВ 5-8
{9}
10 км 8/0
[Ac und Ci fib]
+28.8 +16.1 46 +32 +34 душно 1012.5 997.1
15 18.08 В 2-3
{8}
10 км 9/8 600 м
[Sc Ac und Ci fib]
+27.2 +16.2 51 +31 +31 душно 1013.3 997.8 +29.1
18 18.08 ЮВ 3-5
{5}
10 км 6/0
[Ac und]
+21.7 +14.0 62 +25 +25 комфорт 1014.9 999.1
21 18.08 ЮВ 2-2
{5}
10 км 9/9 600 м
[Sc]
+20.1 +14.9 72 +23 +23 комфорт 1015.3 999.4
00 19.08 ЮВ 2-3
{6}
10 км {гроза} 9/9 600 м
[Cb cap]
+18.2 +16.4 89 +19 +19 1016.6 1000.6
03 19.08 В 4-5
{5}
10 км 9/9 600 м
[Sc]
+17.5 +14.4 82 +17 +17 1016.9 1000.8 +17.3 2
06 19.08 С 3-3
{6}
10 км 9/9 600 м
[Sc]
+20.8 +15.8 73 +24 +25 комфорт 1016.9 1001.0
09 19.08 С 3-3
{6}
10 км 9/9 600 м
[Sc]
+25.4 +15.3 54 +28 +29 жарко 1016.8 1001.1
12 19.08 С 2-2
{6}
10 км 10/10 600 м
[Sc]
+25.6 +16.7 58 +29 +29 душно 1017.0 1001.4
15 19.08 СЗ 1-1
{5}
10 км 10/10 600 м
[Sc]
+23.1 +17.1 69 +28 +28 душно 1017.1 1001.3 +26.0
18 19.08 С 2-2
{4}
10 км 9/9 600 м
[Sc]
+20.4 +17.5 83 +24 +24 комфорт 1018.2 1002.3
21 19.08 СЗ 1-1
{4}
10 км 9/0
[Ci fib]
+18.8 +15.6 82 +21 +21 комфорт 1019.1 1003.1

 

Местоположение метеостанции Порецкое (Чувашия, Россия): широта 55.18 долгота 46.33 высота над уровнем моря 136 м.

В архиве по умолчанию представлена погода в Порецком за последнюю неделю. Архивные данные за месяц целиком и за предыдущие месяцы, начиная с января 2011 года, Вы можете получить, выбрав интересующий диапазон дат из раскрывающегося списка и нажав кнопку "Ввод!".


*Определитесь, кто Вы:
робот инопланетянин человек

Внимание! Время в таблицах - всемирное. Для получения местного времени необходимо прибавить поправку, которая равна 3 ч.

Смотрите также архив погоды в соседних городах и на ближайших метеорологических станциях:

Погода в Алатыре (Чувашия, Россия) (43 км)
Погода в Сергаче (Нижегородская область, Россия) (65 км)
Погода в Большом Болдино (Нижегородская область, Россия) (67 км)
Погода в Сурском (Ульяновская область, Россия) (81 км)
Погода в Канаше (Чувашия, Россия) (81 км)
Погода в Батырево (Чувашия, Россия) (82 км)
Погода в Дрожжаном (Татарстан, Россия) (94 км)
Погода в Больших Березниках (Мордовия, Россия) (115 км)
Погода в Лукоянове (Нижегородская область, Россия) (118 км)
Погода в Чебоксарах (Чувашия, Россия) (118 км)

Пояснения к столбцам:

Ветер - указаны скорость ветра в м/с - средняя за 10 мин, порывы в срок и между сроками (в фигурных скобках) и направление, откуда дует ветер: С - северный, СВ - северо-восточный, В - восточный, ЮВ - юго-восточный, Ю - южный, ЮЗ - юго-западный, З - западный, СЗ - северо-западный.
Видимость - горизонтальная дальность видимости в метрах или километрах. При видимости от 1 до 10 км при отсутствии осадков обычно наблюдается дымка, при ухудшении видимости до 1 км и менее - туман. В сухую погоду видимость может ухудшаться дымом, пылью или мглою.
Явления - указаны атмосферные явления, наблюдавшиеся в срок или в последний час перед сроком; фигурными скобками обозначены явления, наблюдавшиеся между сроками (за 1-3 часа до срока); квадратными скобками обозначены град или гололедные отложения с указанием их диаметра в мм.
Облачность - указаны через наклонную черту общая и нижняя облачность в баллах и высота нижней границы облаков в метрах; квадратными скобками обозначены формы облаков: Ci - перистые, Cs - перисто-слоистые, Cc - перисто-кучевые, Ac - высококучевые, As - высокослоистые, Sc - слоисто-кучевые, Ns - слоисто-дождевые, Cu - кучевые, Cb - кучево-дождевые. Подробнее классификацию облаков см. в Атласе облаков (PDF).
T - Температура воздуха - температура, измеренная на высоте 2 м над землей.
Td - Температура точки росы - температура, при понижении до которой содержащийся в воздухе водяной пар достигнет насыщения.
f - Относительная влажность воздуха - влажноcть воздуха, измеренная на высоте 2 м над землей.
Te - Эффективная температура - температура, которую ощущает одетый по сезону человек в тени. Характеристика душности погоды. При расчете учитывается влияние влажности воздуха и скорости ветра на теплоощущения человека.
Tes - Эффективная температура на солнце - температура, которую ощущает человек, с поправкой на солнечный нагрев. Характеристика знойности погоды. Зависит от высоты солнца над горизонтом, облачности и скорости ветра. Ночью, в пасмурную погоду, а также при ветре 12 м/с и более поправка равна нулю.
P - Атмосферное давление - приведенное к уровню моря атмосферное давление.
Po - Атмосферное давление - измеренное на уровне метеостанции атмосферное давление.
Tmin - Минимальная температура - минимум температуры воздуха на высоте 2 м над землей.
Tmax - Максимальная температура - максимум температуры воздуха на высоте 2 м над землей.
R - Количество осадков - Количество выпавших осадков за период времени, мм. При наведении курсора мыши на число - период времени, за который выпало указанное количество осадков.
R24 - Количество осадков - Количество выпавших осадков за 24 часа, мм.
S - Снежный покров - Высота снежного покрова, см. При наведении курсора мыши на число - состояние снежного покрова и степень покрытия местности в баллах.